TimePDT,TemperatureF,Dew PointF,Humidity,Sea Level PressureIn,VisibilityMPH,Wind Direction,Wind SpeedMPH,Gust SpeedMPH,PrecipitationIn,Events,Conditions,WindDirDegrees,DateUTC
12:53 AM,39.9,28.9,65,30.21,10.0,Calm,Calm,-,N/A,,Overcast,0,2014-04-07 07:53:00
1:53 AM,39.0,28.9,67,30.22,10.0,ESE,3.5,-,N/A,,Clear,120,2014-04-07 08:53:00
2:53 AM,41.0,30.0,65,30.23,10.0,SSE,6.9,-,N/A,,Clear,150,2014-04-07 09:53:00
3:53 AM,42.1,30.9,65,30.24,10.0,South,5.8,-,N/A,,Clear,180,2014-04-07 10:53:00
5:53 AM,37.0,28.9,73,30.29,10.0,SE,4.6,-,N/A,,Clear,140,2014-04-07 12:53:00
6:53 AM,39.0,32.0,76,30.30,10.0,SSE,4.6,-,N/A,,Overcast,150,2014-04-07 13:53:00
7:53 AM,41.0,33.1,73,30.33,10.0,Calm,Calm,-,N/A,,Clear,0,2014-04-07 14:53:00
8:53 AM,46.0,35.1,66,30.33,10.0,South,6.9,-,N/A,,Partly Cloudy,180,2014-04-07 15:53:00
9:53 AM,50.0,36.0,59,30.33,10.0,South,4.6,-,N/A,,Clear,190,2014-04-07 16:53:00
10:53 AM,54.0,37.9,55,30.33,10.0,SW,6.9,-,N/A,,Clear,220,2014-04-07 17:53:00
11:53 AM,55.0,37.9,53,30.32,10.0,SE,6.9,-,N/A,,Clear,140,2014-04-07 18:53:00
1:53 PM,61.0,39.0,44,30.26,10.0,SW,11.5,-,N/A,,Partly Cloudy,220,2014-04-07 20:53:00
2:53 PM,61.0,39.0,44,30.24,10.0,South,4.6,-,N/A,,Mostly Cloudy,180,2014-04-07 21:53:00
3:53 PM,64.0,39.9,41,30.21,10.0,SSW,12.7,-,N/A,,Mostly Cloudy,200,2014-04-07 22:53:00
4:53 PM,63.0,39.9,43,30.21,10.0,South,10.4,-,N/A,,Scattered Clouds,180,2014-04-07 23:53:00
5:53 PM,63.0,39.9,43,30.19,10.0,SSW,6.9,-,N/A,,Clear,200,2014-04-08 00:53:00
6:53 PM,60.1,41.0,49,30.17,10.0,South,8.1,-,N/A,,Partly Cloudy,170,2014-04-08 01:53:00
7:53 PM,50.0,39.9,68,30.17,10.0,Calm,Calm,-,N/A,,Clear,0,2014-04-08 02:53:00
8:53 PM,45.0,37.9,76,30.18,10.0,Calm,Calm,-,N/A,,Clear,0,2014-04-08 03:53:00
9:53 PM,43.0,37.0,80,30.17,10.0,Calm,Calm,-,N/A,,Clear,0,2014-04-08 04:53:00
10:53 PM,41.0,37.9,89,30.15,10.0,Calm,Calm,-,N/A,,Clear,0,2014-04-08 05:53:00
11:53 PM,39.9,36.0,86,30.15,10.0,Calm,Calm,-,N/A,,Clear,0,2014-04-08 06:53:00